Find Starlink 33636

NORAD ID: 63379 Int'l Des: 2025-063 Owner: SPXS Country: US Constellation: starlink operational
LEOCIRCULAR

Live-Position

3D-Globus wird geladen...

Über Starlink 33636

Beschreibung wird geladen...

Nächste Überflüge

Passes for default location (London). Set your location on the main map for personalized predictions.

Höhenverlauf

Loading altitude history...

Zweizeiliger Elementsatz

1 63379U 25063S 26122.82737520 .00017718 00000-0 58409-3 0 9994
2 63379 53.1600 160.6141 0003081 23.6355 336.4787 15.31547692 63000
Epoch: 2. Mai 2026 • Age: 11 hours

Aktueller Status

Höhe 475.3 km
Geschwindigkeit 7.64 km/s
Subsatellitenpunkt 49.19°N, 110.04°W
Startdatum 26. März 2025
Alter 1.1 years
Typ internet

Technische Details

Klassifizierung Payload
Masse 575.00 kg
Trockenmasse 530.00 kg
Gesamtmasse 575.00 kg
Länge 0.30 m
Durchmesser 4.10 m
Spannweite 29.00 m
Form Box + pan
Hersteller SPXS
Bus-Typ Starlink V2MO
Phasenstatus In Orbit
Besitzer/Staat SPXS/US

Most Searched